Location: Jackson Park
(37.2862°N, 79.9123°W)
Time: 15:18:27
(UTC+00:00)

Vanguard 1 Rocket - Pass Details

Date: 17 May 2026
Orbit: 656 x 4211 km, 34.3° (Epoch: 8 June)

Event Time Altitude Azimuth Distance (km) Brightness Sun altitude
Rises 19:33:47 0° 239° (WSW) 3,655 11.0 55.2°
Reaches altitude 10° 19:35:53 10° 235° (SW) 2,946 10.8 54.8°
Maximum altitude 19:43:01 59° 157° (SSE) 1,824 9.7 53.4°
Drops below altitude 10° 19:56:58 10° 83° (E) 5,523 11.1 50.8°
Sets 20:02:33 0° 80° (E) 7,103 11.6 49.7°
